Regional Weather Roundup
Issued by NWS Mobile, AL

Home | Current Version | Previous Version | Text Only | Print | Product List | Glossary On
Versions: 1 2 3 4 5 6 7 8 9 10 11 12 13 14 15 16 17 18 19 20 21 22 23 24 25 26 27 28 29
000
ASUS44 KMOB 301910
RWRMOB
REGIONAL WEATHER ROUNDUP
NATIONAL WEATHER SERVICE MOBILE AL
200 PM CDT THU OCT 30 2014

NOTE: "FAIR" INDICATES FEW OR NO CLOUDS BELOW 12,000 FEET WITH NO
      SIGNIFICANT WEATHER AND/OR OBSTRUCTIONS TO VISIBILITY.

  * THESE STATIONS ARE PART OF THE UNIVERSITY OF SOUTH ALABAMA
    MESONET AND ARE NOT UNDER NWS OR FAA QUALITY CONTROL.

ALZ061>064-302000-
COASTAL ALABAMA

CITY           SKY/WX    TMP DP  RH WIND       PRES   REMARKS
MOBILE REG APT SUNNY     71  41  33 N16       30.04F
BROOKLEY FIELD SUNNY     72  43  35 N13       30.04F
USA CAMPUS*      N/A     70  39  32 NW6       30.03F
DOG RIVER*     NOT AVBL


CITY           SKY/WX    TMP DP  RH WIND       PRES   REMARKS
MOUNT VERNON*  NOT AVBL
SARALAND*      NOT AVBL
BAY MINETTE*   NOT AVBL
LOXLEY*          N/A     70  41  35 NE13      30.02F
ROBERTSDALE*     N/A     72  41  33 W7        30.02F
FAIRHOPE*        N/A     70  45  40 NE9       30.02F
ELBERTA*         N/A     72  39  30 VRB7      30.01F
FOLEY*           N/A     70  37  30 NW9       29.98F
GRAND BAY*       N/A     72  41  33 N8        30.02F
DAUPHIN ISLND* NOT AVBL
BON SCOUR NWR* NOT AVBL
GULF SHORES    SUNNY     73  43  34 N10G16    30.01F

$$

ALZ051>060-302000-
INTERIOR SOUTHWEST AND SOUTH CENTRAL ALABAMA

CITY           SKY/WX    TMP DP  RH WIND       PRES   REMARKS
GREENVILLE     SUNNY     70  35  27 NE6       30.01F
EVERGREEN      SUNNY     71  39  31 NE12      30.03F
CASTLEBERRY*   NOT AVBL
ATMORE*          N/A     68  41  37 VRB9      30.04F
DIXIE*           N/A     72  39  30 NW7       30.00F
ANDALUSIA/OPP  SUNNY     75  39  27 NE9G18    30.01F
ANDALUSIA*       N/A     68  37  32 VRB8      30.02F
FLORALA APT    SUNNY     72  41  32 N8        30.02F
FLORALA*         N/A     70  37  30 NW9       29.98F

$$

FLZ001>006-302000-
WESTERN FLORIDA PANHANDLE

CITY           SKY/WX    TMP DP  RH WIND       PRES   REMARKS
PENSACOLA      SUNNY     72  42  34 N13G18    30.00F
NAS PENSACOLA  SUNNY     73  44  35 N8G22     30.00F
MILTON         MOSUNNY   71  42  35 N9        30.01F
WHTNG S FIELD  MOSUNNY   74  43  32 N12       30.01F


CITY           SKY/WX    TMP DP  RH WIND       PRES   REMARKS
WALNUT HILL*   NOT AVBL
JAY*             N/A     68  39  34 NW10      30.02F
DUKE FIELD     SUNNY     71  42  35 N7        30.00F
CRESTVIEW      SUNNY     72  43  35 N10G20    30.01F
VALPARAISO     SUNNY     72  42  33 NE13      29.99F
DESTIN         SUNNY     74  45  35 N8        29.99F

$$

MSZ076-079-302000-
INTERIOR SOUTHEAST MISSISSIPPI

CITY           SKY/WX    TMP DP  RH WIND       PRES   REMARKS
LEAKESVILLE*     N/A     70  34  26 N9        30.06F
AGRICOLA*      NOT AVBL

$$

MARINE OBSERVATIONS

STATION/POSITION TIME  TEMP    WIND        PRES    WAVE
                       AIR SEA DIR/SP/G            HT/PER
                 (UTC) (F)     (DEG/KT/KT) (MB)    (FT/S)
PASCAGOULA       1900   70     360/ 11/ 14 1016.6F
PETIT BOIS ISLND 1900   70     360/ 10/ 13 1017.1F
GRAND BAY        1800   69      30/ 10     1019.0S
KATRINA CUT      1800   68      50/ 16     1018.0F
CEDAR POINT      1800   66      30/ 14     1017.3F
E DAUPHIN ISLAND 1757   67     360/ 15/ 18 1017.6F
MIDDLE BAY LIGHT 1700   68      10/ 14       N/A
USCG MOBILE BAY  1900   68 75   10/ 11/ 15 1015.8F
STATE DOCKS      1900   70 74              1016.9F
MEAHER PARK      1800   69     350/  9     1016.9F
WEEKS BAY        1800   72                   N/A
12 S ORANGE BCH  1900   69 77   20/ 10/ 14 1015.8F   2/ 5
PENSACOLA BAY    1900   73 75   10/  8/ 12 1016.1F
64 S DAUPHIN ISL 1800   69 78   40/ 17/ 19 1016.7F   4/ 6
67 S FORT MORGAN 1800   72                 1015.9F

$$

SELECTED LOCATIONS ACROSS THE REGION

CITY           SKY/WX    TMP DP  RH WIND       PRES   REMARKS
NEW ORLEANS    MOSUNNY   72  43  35 N10       30.07F
GULFPORT       SUNNY     73  42  32 NE12      30.03F
PASCAGOULA AP  SUNNY     73  39  29 N12G21    30.03F
PASCAGOULA*      N/A     72  39  30 N7        30.02F
HATTIESBURG    SUNNY     72  36  26 MISG      30.07F
LAUREL         SUNNY     72  36  26 N12       30.08F
MERIDIAN       SUNNY     71  36  27 N6        30.07F
JACKSON        MOSUNNY   72  40  31 N8        30.09F
MONTGOMERY     SUNNY     71  38  29 N7        30.03F
TROY           SUNNY     71  38  29 N9        30.02F
KINSTON*       NOT AVBL
GENEVA*          N/A     72  37  28 NE8       30.02F
ASHFORD*         N/A     68  37  32 VRB8      30.02F
DOTHAN         SUNNY     72  39  30 N8        30.02F
PANAMA CITY    SUNNY     74  43  32 N12       29.97F

$$




USA.gov is the U.S. government's official web portal to all federal, state and local government web resources and services.